Погода Florennes

Погода Florennes : погода сейчас, прогноз погоды и архив. Всё, что Вы хотите узнать о погоде Florennes!

Поиск расширенной информации на нашем сайте:

Другие новости

Новости СМИ2

Главная страница сайта

Новости сайта

03.07.2017

Напоминаем, что на нашем специализированном сайте Метеоцентр.Азия вы можете получить высокодетализированные автоматические прогнозы погоды по пунктам России, СНГ и мира в авиационном формате (включающие направление и скорость ветра, видимость, явления погоды, количество и форму облачности, нижнюю и верхнюю границу облачности).


Погода Florennes - сегодня

Время (UTC), дата Ветер
(°,м/с) 
Видим.   Явления Облачность Т
(°С)
Тd
(°С)
f(%) Тe
(°С)
Pmin
(гПа)
dP
(гПа)
Po
(мм)
O2
(г/м3)
Тmin Tmax R s Состояние
почвы
15 17.07.18 280 (З) 4{00}  20000 м    6/5 1500 м средняя, верхняя 
[Cu Sc|Ac trans|Ci fib]
+24.4 +10.8 42 +27  1016.2  -0.1  738  271           
18 17.07.18 //0 (С) //{00}  20000 м    н/о 
+22.2 +8.8 42 +22  1016.7  0.2  738  273    +24.7       
21 17.07.18 //0 (С) //{00}  20000 м    н/о 
+17.3 +8.2 55 +17  1018.7  1.3  739  279           
00 18.07.18 //0 (С) //{00}  20000 м    н/о 
+15.2 +8.1 63 +15  1019.2  0.2  739  281           
03 18.07.18 //0 (С) //{00}  20000 м    н/о 
+13.5 +8.5 72 +14  1019.2  -0.1  739  282           
06 18.07.18 нст () 1{00}  20000 м    6/5 1500 м верхняя 
[Sc|Ci fib]
+14.6 +9.5 71 +17  1019.6  0.4  739  281  +12        сухая 
09 18.07.18 280 (З) 2{00}  20000 м    5/3 1320 м верхняя 
[Cu Sc|Ci fib]
+20.9 +8.7 46 +21  1019.2  0.3  740  275           
12 18.07.18 270 (З) 2{00}  20000 м    4/3 1500 м верхняя 
[Cu hum|Ci fib]
+23 +8 38 +23  1018.6  -0.4  739  273           
15 18.07.18 нст () 1{00}  20000 м    3/3 1500 м верхняя 
[Cu hum|Ci fib]
+23.1 +8.1 38 +23  1017.8  -0.6  739  273           
18 18.07.18 //0 (С) //{00}  20000 м    н/о 
+23.3 +8.7 39 +23  1017.5  -0.3  739  273    +25       
21 18.07.18 //0 (С) //{00}  20000 м    н/о 
+17.7 +9.7 59 +19  1018.7  0.6  739  278           
00 19.07.18 //0 (С) //{00}  20000 м    н/о 
+15.9 +11 73 +19  1019.7  0.8  740  280           
03 19.07.18 //0 (С) //{00}  20000 м    н/о 
+14.8 +10.6 76 +17  1019.2  -0.6  739  281           
06 19.07.18 нст () 1{00}  20000 м    1/0 верхняя 
[Ci fib]
+18 +12.2 69 +24  1018.7  739  277  +13.1        сухая 
09 19.07.18 нст () 1{00}  25000 м    1/1 1200 м верхняя 
[Cu hum|Ci fib]
+22.4 +10.4 47 +24  1018.3  0.1  739  273           
12 19.07.18 040 (СВ) 2{00}  25000 м    6/1 1500 м верхняя 
[Cu hum|Ci fib]
+24.8 +8.8 36 +25  1017.6  -0.5  739  271           
15 19.07.18 030 (СВ) 3{00}  25000 м    4/1 2000 м верхняя 
[Cu hum|Ci sp]
+25.9 +8.3 33 +26  1016.5  -1  738  270           
18 19.07.18 //0 (С) //{00}  20000 м    н/о 
+24.6 +9.2 38 +25  1015.8  -0.7  738  271    +26.8       
21 19.07.18 //0 (С) //{00}  20000 м    н/о 
+19.3 +10.5 57 +21  1017  0.4  738  276           
00 20.07.18 //0 (С) //{00}  20000 м    н/о 
+16.6 +8.5 59 +17  1016.7  -0.4  738  279           
03 20.07.18 //0 (С) //{00}  20000 м    н/о 
+15.2 +7.9 62 +15  1015.7  -1.1  737  280           
06 20.07.18 050 (СВ) 2{00}  30000 м    6/0 средняя, верхняя 
[Ac trans|Ci fib]
+16.5 +9.8 65 +18  1015.1  -0.5  736  278  +14.3        сухая 
09 20.07.18 050 (СВ) 3{00}  30000 м    6/0 средняя, верхняя 
[Ac trans|Ci fib]
+23.6 +10.8 44 +26  1014.1  -0.1  736  271           
12 20.07.18 340 (С) 2{00}  30000 м    9/0 средняя, верхняя 
[Ac trans|Ci fib]
+24.2 +9.2 39 +25  1013.5  -0.5  736  271           
15 20.07.18 //0 (С) //{00}  н/о    н/о 
+19.2 +13.4 69 +26  1013.7  -0.3  736  274           
Время (UTC), дата Ветер
(°,м/с) 
Видим.   Явления Облачность Т
(°С)
Тd
(°С)
f(%) Тe
(°С)
Pmin
(гПа)
dP
(гПа)
Po
(мм)
O2
(г/м3)
Тmin Tmax R s Состояние
почвы

Для получения пояснительной информации подведите курсор к названию столбца.

ПОГОДА Florennes - архив

Всё, что Вы хотите узнать о погоде Florennes - удобно и подробно!

Выберите нужную дату (начиная с 1 января 2015* года) и нажмите кнопку "Найти".
Будут отображены архивные сводки погоды по пункту Florennes, начиная с указанной даты.


Отображать данные в формате CSV (для использования в таблицах Excel)


Внимание! Наш архив погоды предназначен исключительно для личного некоммерческого использования в познавательных целях. Если Вам необходимы официальные справки о состоянии погоды (для производственных, юридических, коммерческих и т.п. целей), обращайтесь в органы Росгидромета.

*Примечание: данная дата относится к архиву по метеостанциям СССР (Россия, СНГ, Балтия).
Архив по метеостанциям Зарубежной Европы и Азии (кроме Китая) хранится 10 дней, по другим регионам земного шара (Китай, Африка, Америка, Австралия, Океания) - 1 день.

Florennes - район местоположения метеостанции


Название, широта, долгота, высота метеостанции:
Florennes 50.2°ш. 4.6°д. 299 м над ур. моря [Belgium]

Дополнительная информация

В oтличие oт бoльшинства пoгoдных сайтoв мы публикуем пoдрoбную метеoинфoрмацию в детальнoм прoфессиoнальнoм фoрмате.

Характеристики температуры и влажнoсти вoздуха измеряются на высoте 2 м в тени вдали oт зданий и деревьев.
Скoрoсть ветра измеряется на высoте 10 м (на урoвне рoста челoвека скoрoсть ветра ниже в 1.5-2 раза). Если метеoстанция нахoдится в гoрoде или в лесу, тo скoрoсть ветра занижена на 2-4 м/с пo сравнению с oткрытым местoм. Скoрoсть ветра над акватoриями крупных рек и oзёр, а также на вершинах хoлмoв на 2-5 м/с выше, чем в oбычных услoвиях.
Атмoсфернoе давление в разных тoчках местнoсти мoжет значительнo oтличаться oт давления на метеoстанции, в зависимoсти oт услoвий рельефа (при пoдъёме на 10 м давление пoнижается примернo на 1 мм рт.ст.).